[[{"header":{"parameterUnit":"m.s-1","parameterCategory":1,"la1":30.2991,"la2":30.254,"lo1":-89.0895,"lo2":-89.0444,"dy":0.0017,"dx":0.0017,"nx":28,"ny":28,"refTime":"2024-06-24T03:00:00:Z","depth":0,"parameterNumber":2,"parameterNumberName":"U-component_of_WINDS"},"data":[0,0,0,0,0,0,0,0,0,0,0,0,0,0,0,0,0,0,0,0,0,0,0,0,0,0,0,0,0,0,0,0,0,0,0,0,0,0,0,0,0,0,0,0,0,0,0,0,0,0,0,0,0,0,0,0,0,0,3.68,3.6801,0,3.6912,3.6913,3.6915,3.6844,3.6841,3.6838,3.6835,3.6951,3.6957,3.6964,0,0,0,0,0,0,0,0,0,0,0,0,0,3.6526,3.6531,3.68,3.6801,3.6803,3.6912,3.6914,3.6915,3.6845,3.6841,3.6837,3.6833,3.6949,3.6957,3.6964,0,0,0,0,0,0,0,0,0,0,0,0,0,3.6642,3.6533,3.68,3.6781,3.678,3.6912,3.6914,3.6915,3.6846,3.6841,3.6836,3.6831,3.6947,3.6956,3.6965,3.7122,0,0,3.6994,3.6998,0,0,0,0,0,0,0,0,3.6636,3.6653,3.6782,3.6783,3.6782,3.6859,3.686,3.6985,3.6847,3.6821,3.6835,3.6829,3.6925,3.6936,3.6968,3.7127,3.7132,3.6994,3.7,3.7004,3.7007,0,0,0,0,0,0,0,3.6628,3.6647,3.6844,3.6784,3.6784,3.6767,3.6778,3.6883,3.69,3.6823,3.6818,3.6832,3.6924,3.6959,3.697,3.7134,3.6994,3.7002,3.7008,3.7012,3.7426,3.7432,0,0,0,0,0,0,3.6621,3.6641,3.6841,3.6848,3.6695,3.6776,3.6788,3.684,3.6898,3.6902,3.6836,3.6828,3.6945,3.6959,3.6974,3.716,3.7004,3.7013,3.7018,3.7421,3.7428,3.7433,0,0,0,0,0,0,3.6616,3.664,3.6836,3.6743,3.6767,3.6786,3.6844,3.6844,3.6879,3.6908,3.6911,3.6869,3.6942,3.6961,3.7085,3.7163,3.7017,3.7025,3.7415,3.7423,3.7431,3.7534,0,0,0,0,0,0,3.6608,3.6638,3.6698,3.6745,3.6772,3.6946,3.6849,3.685,3.6895,3.6886,3.694,3.6944,3.694,3.7072,3.7094,3.7173,3.7033,3.7408,3.7418,3.7428,3.7524,3.7545,3.7563,0,0,0,0,0,3.6598,3.6723,3.6701,3.6726,3.6847,3.6951,3.6966,3.6958,3.6902,3.6962,3.698,3.6942,3.7151,3.7085,3.711,3.7193,3.7403,3.7415,3.7427,3.7515,3.7541,3.7562,0,0,0,0,0,0,3.6686,3.6729,3.6705,3.6849,3.6896,3.6938,3.7014,3.6986,3.7051,3.704,3.7028,3.704,3.717,3.7194,3.712,3.7347,3.7268,3.7286,3.7326,3.7351,3.737,3.7361,3.704,0,0,0,0,0,3.6721,3.6802,3.6835,3.6959,3.6984,3.6995,3.704,3.703,3.7079,3.7099,3.7126,3.7176,3.7252,3.7303,3.7375,3.7527,3.7537,3.7596,3.7616,3.7632,3.7647,3.7728,3.7754,3.7474,3.7474,3.7473,0,0,3.6797,3.683,3.6882,3.6977,3.7013,3.7096,3.7013,3.7104,3.7166,3.7113,3.7231,3.7253,3.7308,3.7446,3.7509,3.747,3.7727,3.7647,3.766,3.7666,3.7743,3.777,3.7793,3.7482,3.748,3.7479,0,0,3.6976,3.701,3.7115,3.7153,3.7207,3.7213,3.7239,3.7285,3.7297,3.7416,3.7377,3.7451,3.7583,3.7623,3.7661,3.7853,3.782,3.7877,3.7979,3.8058,3.808,3.8099,3.8167,3.8192,3.7893,3.7893,3.7893,0,3.7062,3.7185,3.7174,3.7268,3.7311,3.7266,3.7372,3.7409,3.7485,3.7516,3.7471,3.7635,3.7669,3.7815,3.7862,3.7895,3.7923,3.7871,3.8078,3.8097,3.8115,3.818,3.8205,3.79,3.7899,3.7898,3.7898,0,3.7289,3.7375,3.7454,3.7527,3.7579,3.7679,3.7682,3.7736,3.7721,3.7732,3.7853,3.7892,3.797,3.8004,3.7991,3.8149,3.8123,3.8079,3.7999,3.8149,3.8209,3.8233,3.7909,3.7907,3.7905,3.7903,0,0,3.7526,3.759,3.762,3.7651,3.7708,3.7774,3.7872,3.7948,3.7994,3.8048,3.8129,3.8242,3.82,3.8243,3.8234,3.8303,3.8452,3.825,3.8251,3.8285,3.8627,3.8659,3.8688,3.8431,3.8435,3.8439,3.8622,0,3.7707,3.7878,3.7869,3.8029,3.8108,3.8065,3.8151,3.8194,3.8207,3.8276,3.829,3.837,3.831,3.8335,3.8402,3.842,3.852,3.8407,3.8506,3.851,3.8493,3.872,3.8755,3.8925,3.8645,3.8649,3.8652,0,3.7942,3.8002,3.8169,3.8213,3.8245,3.8322,3.839,3.8457,3.8505,3.8509,3.8557,3.8536,3.8635,3.8553,3.8689,3.8611,3.8652,3.8667,3.8673,3.8681,3.8589,3.8733,3.898,3.9005,3.869,3.8687,3.8684,0,3.8097,3.822,3.8335,3.8364,3.8418,3.8473,3.8498,3.8541,3.8587,3.8647,3.8676,3.8747,3.8786,3.8841,3.884,3.8781,3.8977,3.8895,3.8983,3.8983,3.9026,3.9023,3.9281,3.9054,3.9053,3.9053,3.9052,0,3.83,3.8404,3.8405,3.8477,3.8591,3.8581,3.8694,3.8714,3.8753,3.8826,3.8795,3.8865,3.8859,3.893,3.893,3.9041,3.906,3.9066,3.9064,3.9068,3.9067,3.9094,3.9081,3.9059,3.9058,3.9057,3.9055,0,3.8492,3.8498,3.8621,3.8661,3.8673,3.8756,3.879,3.8858,3.8867,3.8961,3.8982,3.8998,3.9079,3.9083,3.9178,3.9178,3.9313,3.9299,3.9296,3.9294,3.938,3.9372,3.9664,3.9701,3.945,3.9453,3.9455,0,3.8621,3.8699,3.8748,3.8794,3.8822,3.8899,3.8944,3.8937,3.8986,3.9047,3.9107,3.9185,3.9247,3.9379,3.9399,3.947,3.9457,3.9555,3.9468,3.9469,3.9457,3.9452,3.9459,3.9571,3.9574,3.9576,3.9578,0,3.8848,3.8847,3.8914,3.8982,3.9038,3.9091,3.9141,3.9181,3.918,3.9237,3.9319,3.9367,3.9462,3.954,3.961,3.9635,3.9607,3.9605,3.9629,3.9633,3.9628,3.9631,3.9341,3.9599,3.9597,3.9595,3.9594,3.9593,3.9012,3.9079,3.9123,3.9199,3.9235,3.9282,3.9347,3.9364,3.9432,3.9508,3.95,3.9591,3.9637,3.9727,3.9758,3.9829,3.9796,3.9831,3.984,3.9848,3.9857,3.9617,3.9842,3.9842,3.9841,3.9841,3.984,0,3.9237,3.9263,3.9332,3.9402,3.9461,3.9428,3.9481,3.9533,3.9614,3.9658,3.9719,3.9813,3.9888,3.9914,3.9986,4.0038,4.0027,4.0058,4.0053,4.0059,3.9883,3.9854,4.0066,4.0066,4.0066,4.0065,4.0065,4.0065,3.936,3.9472,3.9475,3.9604,3.9629,3.9718,3.9751,3.9794,3.9829,3.9935,3.9997,4.0012,4.0049,4.0124,4.0191,4.0196,4.0224,4.026,4.026,4.0095,4.0072,4.005,4.0023,4.0267,4.0267,4.043,4.0432,4.0433]},{"header":{"parameterUnit":"m.s-1","parameterCategory":1,"la1":30.2991,"la2":30.254,"lo1":-89.0895,"lo2":-89.0444,"dy":0.0017,"dx":0.0017,"nx":28,"ny":28,"refTime":"2024-06-24T03:00:00:Z","depth":0,"parameterNumber":3,"parameterNumberName":"V-component_of_WINDS"},"data":[0,0,0,0,0,0,0,0,0,0,0,0,0,0,0,0,0,0,0,0,0,0,0,0,0,0,0,0,0,0,0,0,0,0,0,0,0,0,0,0,0,0,0,0,0,0,0,0,0,0,0,0,0,0,0,0,0,0,0.4209,0.4209,0,0.4194,0.4193,0.4193,0.4169,0.4169,0.4169,0.4168,0.4152,0.4152,0.4152,0,0,0,0,0,0,0,0,0,0,0,0,0,0.4216,0.4216,0.4209,0.4209,0.4208,0.4194,0.4193,0.4193,0.4169,0.4169,0.4168,0.4168,0.4152,0.4152,0.4152,0,0,0,0,0,0,0,0,0,0,0,0,0,0.4208,0.4216,0.4209,0.4195,0.4193,0.4194,0.4193,0.4193,0.417,0.4169,0.4168,0.4168,0.4152,0.4152,0.4152,0.4165,0,0,0.4152,0.4152,0,0,0,0,0,0,0,0,0.4208,0.4207,0.4197,0.4196,0.4194,0.4183,0.419,0.4184,0.417,0.4179,0.4168,0.4167,0.4163,0.4162,0.4161,0.4164,0.4164,0.4152,0.4152,0.4152,0.4152,0,0,0,0,0,0,0,0.4209,0.4208,0.4203,0.4197,0.4195,0.4189,0.4187,0.4189,0.4175,0.4178,0.4176,0.4175,0.4162,0.4161,0.416,0.4163,0.4152,0.4152,0.4152,0.4152,0.4175,0.4176,0,0,0,0,0,0,0.4212,0.4209,0.4203,0.4202,0.42,0.4189,0.4187,0.4187,0.4175,0.4172,0.4175,0.4173,0.4161,0.416,0.4159,0.4173,0.4152,0.4152,0.4152,0.4174,0.4175,0.4176,0,0,0,0,0,0,0.4212,0.4211,0.4204,0.4205,0.4204,0.419,0.419,0.4187,0.4186,0.4172,0.417,0.4176,0.416,0.4159,0.4163,0.4172,0.4152,0.4152,0.4174,0.4175,0.4176,0.42,0,0,0,0,0,0,0.4212,0.4212,0.4217,0.4205,0.4204,0.4209,0.419,0.4187,0.4186,0.4184,0.4173,0.4171,0.416,0.4164,0.4163,0.4171,0.4152,0.4173,0.4174,0.4175,0.4198,0.4202,0.4204,0,0,0,0,0,0.4212,0.4225,0.4217,0.4217,0.421,0.4209,0.4208,0.4196,0.4187,0.4191,0.4182,0.4171,0.4171,0.4164,0.4164,0.4172,0.4172,0.4174,0.4175,0.4197,0.4201,0.4204,0,0,0,0,0,0,0.4238,0.4223,0.4215,0.4223,0.4218,0.4205,0.4211,0.4201,0.4198,0.4196,0.418,0.4178,0.4184,0.4178,0.4171,0.4183,0.417,0.4171,0.4186,0.419,0.4193,0.4194,0.4152,0,0,0,0,0,0.4244,0.4246,0.4232,0.4241,0.4239,0.4226,0.4225,0.4215,0.4209,0.4207,0.4198,0.4192,0.419,0.419,0.4188,0.4197,0.4194,0.4202,0.4205,0.4208,0.4209,0.4213,0.4216,0.418,0.418,0.418,0,0,0.4258,0.425,0.4252,0.4246,0.4241,0.4242,0.4224,0.4226,0.4226,0.4207,0.421,0.4203,0.4195,0.4202,0.4204,0.4197,0.4218,0.421,0.4212,0.4212,0.4214,0.4218,0.4221,0.4181,0.4181,0.4181,0,0,0.4284,0.4278,0.4285,0.4279,0.4271,0.4262,0.4263,0.4252,0.4246,0.4249,0.4234,0.4234,0.4232,0.4227,0.4224,0.4245,0.4234,0.4245,0.4261,0.4264,0.4267,0.4269,0.4276,0.4279,0.4246,0.4246,0.4246,0,0.4302,0.4303,0.4289,0.4292,0.4289,0.4271,0.4277,0.4272,0.4264,0.4262,0.4254,0.425,0.4244,0.4248,0.4253,0.4251,0.4252,0.4246,0.4268,0.427,0.4272,0.4278,0.4281,0.4247,0.4247,0.4247,0.4247,0,0.4326,0.4327,0.4333,0.4325,0.4323,0.4327,0.4313,0.4312,0.4302,0.4294,0.4296,0.4287,0.4282,0.4282,0.4273,0.4285,0.4281,0.427,0.4257,0.4277,0.4283,0.4285,0.4249,0.4249,0.4248,0.4248,0,0,0.4369,0.4351,0.4354,0.4349,0.4338,0.4338,0.4341,0.4336,0.4335,0.4329,0.4331,0.4328,0.4318,0.4315,0.4304,0.4307,0.4324,0.4297,0.4296,0.4302,0.4335,0.4343,0.4346,0.4316,0.4316,0.4317,0.4336,0,0.4392,0.4396,0.4383,0.439,0.439,0.4372,0.4374,0.4367,0.4358,0.4356,0.4346,0.4345,0.4332,0.433,0.4332,0.4322,0.433,0.432,0.4317,0.4317,0.432,0.4349,0.4358,0.4377,0.4338,0.4338,0.4339,0,0.442,0.4415,0.4423,0.4409,0.4409,0.4411,0.4405,0.4403,0.4394,0.4388,0.4383,0.4371,0.4371,0.4358,0.4358,0.4351,0.4349,0.4344,0.4344,0.4344,0.4329,0.435,0.4382,0.4385,0.4342,0.4342,0.4342,0,0.445,0.4445,0.4449,0.4445,0.443,0.4432,0.4426,0.4416,0.4413,0.4407,0.4405,0.4399,0.4396,0.4392,0.4378,0.4369,0.4379,0.4365,0.4373,0.4374,0.4377,0.4377,0.441,0.4375,0.4375,0.4375,0.4375,0,0.4478,0.4483,0.4462,0.4464,0.4469,0.4452,0.4457,0.4449,0.444,0.444,0.4423,0.4423,0.4404,0.4402,0.4391,0.4392,0.4391,0.4385,0.4382,0.4387,0.4388,0.4385,0.4384,0.4376,0.4376,0.4376,0.4375,0,0.4513,0.4499,0.4501,0.4486,0.4482,0.4486,0.4473,0.4474,0.4463,0.4463,0.4462,0.4446,0.4442,0.4427,0.442,0.4412,0.4417,0.4411,0.442,0.4418,0.4427,0.4426,0.446,0.4463,0.4427,0.4427,0.4427,0,0.4531,0.4535,0.452,0.4518,0.4512,0.451,0.4507,0.449,0.4488,0.4477,0.4479,0.4473,0.4468,0.4462,0.4449,0.4443,0.4437,0.4449,0.4436,0.444,0.4437,0.4437,0.4437,0.4452,0.4453,0.4453,0.4453,0,0.4566,0.4558,0.4555,0.4548,0.4545,0.4539,0.4532,0.4532,0.4513,0.451,0.4506,0.4502,0.4493,0.4488,0.4479,0.4472,0.4459,0.4457,0.4459,0.4464,0.4469,0.4466,0.4428,0.4457,0.4456,0.4456,0.4456,0.4456,0.4593,0.4595,0.4584,0.458,0.4573,0.4566,0.4566,0.4555,0.4551,0.4543,0.4533,0.453,0.4518,0.4505,0.4499,0.4495,0.4488,0.4491,0.4491,0.4492,0.4494,0.4469,0.4494,0.4494,0.4493,0.4493,0.4493,0,0.4626,0.4618,0.4615,0.4605,0.4601,0.4589,0.458,0.4578,0.4575,0.4566,0.4561,0.4555,0.4549,0.4535,0.4528,0.4528,0.4521,0.4526,0.4526,0.4524,0.4501,0.45,0.4531,0.4531,0.4531,0.4531,0.4531,0.4531,0.4643,0.4645,0.4636,0.4634,0.4625,0.4622,0.4618,0.4611,0.4603,0.4598,0.4593,0.4583,0.4572,0.4563,0.4557,0.4553,0.4551,0.4557,0.4551,0.453,0.4526,0.4523,0.4522,0.4557,0.4557,0.4575,0.4575,0.4575]}]]